�N����,����,�~����,�C��,���x,�C��,����,���ϕ���,�ő�u�ԕ���,�ő厞����,���˗�,�I�_���x,�n�����x,�ő啗���N��,DTYPE
"23/08/11","00:10",0.0,28.2,76.6,1001.2,79.0,1.0,2.2,131.0,0.00,23.7,26.3,"00:05:12",1
"23/08/11","00:20",0.0,28.2,76.7,1001.2,108.2,1.0,2.7,107.8,0.00,23.8,26.2,"00:19:20",1
"23/08/11","00:30",0.0,28.2,76.3,1001.0,89.7,1.2,3.4,114.5,0.00,23.7,26.5,"00:21:28",1
"23/08/11","00:40",0.0,28.3,76.1,1001.0,104.0,1.1,2.4,103.8,0.00,23.7,26.5,"00:31:28",1
"23/08/11","00:50",0.0,28.2,76.1,1000.8,86.2,0.8,1.8,61.0,0.00,23.6,26.3,"00:43:44",1
"23/08/11","01:00",0.0,28.2,75.7,1000.8,104.7,0.8,2.2,148.6,0.00,23.5,26.2,"00:56:08",1
"23/08/11","01:10",0.0,28.1,75.1,1000.8,91.7,0.6,1.8,99.5,0.00,23.3,26.2,"01:07:04",1
"23/08/11","01:20",0.0,27.9,75.0,1000.8,93.9,0.5,1.4,99.2,0.00,23.1,26.2,"01:10:02",1
"23/08/11","01:30",0.0,27.7,75.4,1001.0,105.6,0.5,1.0,178.1,0.00,23.0,26.1,"01:21:36",1
"23/08/11","01:40",0.0,27.5,76.4,1000.5,23.4,0.5,1.3,76.0,0.00,23.0,26.2,"01:34:32",1
"23/08/11","01:50",0.0,27.3,77.7,1000.8,56.0,0.6,2.0,123.3,0.00,23.1,26.1,"01:45:36",1
"23/08/11","02:00",0.0,27.4,78.3,1000.5,49.7,0.6,1.7,67.2,0.00,23.3,26.2,"01:57:20",1
"23/08/11","02:10",0.0,27.5,78.3,1000.3,10.0,0.6,1.9,51.6,0.00,23.4,25.9,"02:06:24",1
"23/08/11","02:20",0.0,27.6,78.1,1000.5,23.7,0.6,2.2,100.6,0.00,23.5,26.1,"02:11:36",1
"23/08/11","02:30",0.0,27.7,78.1,1000.5,29.3,0.6,1.9,23.7,0.00,23.6,26.2,"02:23:28",1
"23/08/11","02:40",0.0,27.7,78.1,1000.5,16.6,0.7,1.8,126.8,0.00,23.6,26.2,"02:36:32",1
"23/08/11","02:50",0.0,27.7,78.0,1000.3,57.5,0.6,1.7,96.7,0.00,23.6,26.1,"02:40:32",1
"23/08/11","03:00",0.0,27.7,78.1,1000.5,53.5,0.7,2.1,106.6,0.00,23.6,26.0,"02:51:52",1
"23/08/11","03:10",0.0,27.7,78.3,1000.5,98.8,0.6,2.2,124.1,0.00,23.6,26.0,"03:09:12",1
"23/08/11","03:20",0.0,27.6,78.4,1000.8,90.5,0.7,2.0,128.7,0.00,23.5,26.0,"03:12:08",1
"23/08/11","03:30",0.0,27.6,78.6,1000.8,97.8,0.7,2.0,86.1,0.00,23.6,26.0,"03:24:16",1
"23/08/11","03:40",0.0,27.5,78.8,1000.8,114.8,0.8,2.2,175.1,0.00,23.5,26.1,"03:32:00",1
"23/08/11","03:50",0.0,27.4,79.3,1000.5,92.3,0.8,2.1,57.6,0.00,23.5,26.1,"03:42:32",1
"23/08/11","04:00",0.0,27.4,79.6,1000.8,68.6,0.8,2.1,69.7,0.00,23.6,25.9,"03:50:48",1
"23/08/11","04:10",0.0,27.4,79.9,1000.8,91.4,1.0,2.9,105.3,0.00,23.7,26.0,"04:00:48",1
"23/08/11","04:20",0.0,27.3,80.0,1001.0,108.3,1.0,2.5,105.7,0.00,23.6,26.0,"04:16:08",1
"23/08/11","04:30",0.0,27.3,80.2,1000.8,112.6,1.0,2.2,90.9,0.00,23.6,25.7,"04:28:00",1
"23/08/11","04:40",0.0,27.2,80.4,1000.5,85.9,0.8,2.1,110.1,0.00,23.6,25.8,"04:38:24",1
"23/08/11","04:50",0.0,27.2,80.5,1000.8,95.8,1.1,2.9,122.3,0.00,23.6,25.7,"04:42:32",1
"23/08/11","05:00",0.0,27.1,80.5,1001.0,137.8,0.8,2.0,106.1,0.00,23.5,25.9,"04:54:00",1
"23/08/11","05:10",0.0,27.1,80.9,1001.0,118.7,1.0,3.4,143.5,0.00,23.6,26.0,"05:07:52",1
"23/08/11","05:20",0.0,27.1,81.0,1001.2,123.3,1.1,3.2,159.5,0.00,23.6,25.9,"05:15:20",1
"23/08/11","05:30",0.0,27.1,81.0,1001.2,81.6,0.7,2.2,56.5,0.00,23.6,25.8,"05:22:40",1
"23/08/11","05:40",0.0,27.2,81.3,1001.0,111.9,0.8,2.1,105.5,0.00,23.8,25.8,"05:31:20",1
"23/08/11","05:50",0.0,27.3,81.2,1001.0,94.2,0.8,1.9,135.7,0.00,23.8,25.9,"05:48:08",1
"23/08/11","06:00",0.0,27.4,81.0,1001.0,72.9,0.8,1.9,94.6,0.00,23.9,25.6,"05:52:48",1
"23/08/11","06:10",0.0,27.4,80.9,1001.2,101.3,0.8,3.2,91.4,0.00,23.9,25.9,"06:07:12",1
"23/08/11","06:20",0.0,27.4,80.8,1001.2,94.2,1.1,2.6,108.4,0.00,23.8,25.7,"06:15:28",1
"23/08/11","06:30",0.0,27.1,81.4,1001.5,90.9,1.0,4.2,183.4,0.00,23.7,25.7,"06:27:20",1
"23/08/11","06:40",0.0,27.2,81.6,1001.9,104.8,0.8,2.5,125.5,0.01,23.8,25.8,"06:31:36",1
"23/08/11","06:50",0.0,27.4,81.4,1001.7,117.6,0.6,1.6,98.0,0.03,24.0,25.8,"06:46:08",1
"23/08/11","07:00",0.0,27.7,80.8,1001.5,110.2,0.7,2.0,101.8,0.04,24.1,25.7,"06:59:36",1
"23/08/11","07:10",0.0,28.0,79.8,1001.2,63.4,0.6,1.3,76.4,0.05,24.2,25.9,"07:03:28",1
"23/08/11","07:20",0.0,28.2,78.4,1001.5,124.8,1.2,3.1,185.5,0.06,24.1,25.9,"07:18:48",1
"23/08/11","07:30",0.0,28.6,76.7,1001.0,115.6,1.2,2.7,125.5,0.11,24.1,25.7,"07:20:24",1
"23/08/11","07:40",0.0,29.0,74.9,1001.2,106.4,1.5,4.2,109.0,0.12,24.1,25.7,"07:38:00",1
"23/08/11","07:50",0.0,29.3,73.8,1000.5,126.6,1.8,3.9,101.9,0.15,24.2,25.8,"07:42:00",1
"23/08/11","08:00",0.0,29.7,73.0,1000.8,116.4,1.7,4.0,112.6,0.16,24.4,25.8,"07:51:28",1
"23/08/11","08:10",0.0,30.5,71.4,1001.2,115.5,1.6,3.4,158.6,0.29,24.8,25.8,"08:03:20",1
"23/08/11","08:20",0.0,31.1,68.4,1001.9,96.6,1.7,3.2,92.9,0.30,24.6,26.0,"08:16:08",1
"23/08/11","08:30",0.0,30.9,68.4,1002.4,117.1,1.6,3.5,142.9,0.23,24.4,25.9,"08:28:32",1
"23/08/11","08:40",0.0,31.8,66.1,1002.6,115.6,1.5,3.5,103.1,0.37,24.7,26.1,"08:34:40",1
"23/08/11","08:50",0.0,31.3,67.8,1002.6,110.5,1.3,2.8,117.7,0.19,24.7,25.9,"08:44:40",1
"23/08/11","09:00",0.0,31.2,67.0,1002.9,85.8,1.2,2.7,51.0,0.21,24.4,26.2,"08:50:24",1
"23/08/11","09:10",0.0,31.2,66.8,1002.6,97.3,1.2,3.3,87.9,0.21,24.3,26.2,"09:03:52",1
"23/08/11","09:20",0.0,31.1,68.6,1002.9,93.9,1.0,2.2,48.2,0.17,24.7,26.1,"09:16:16",1
"23/08/11","09:30",0.0,31.7,66.5,1002.4,102.4,1.6,4.0,124.7,0.32,24.7,26.3,"09:28:56",1
"23/08/11","09:40",0.0,31.8,63.5,1002.9,144.5,1.8,3.7,145.8,0.28,24.1,26.3,"09:37:20",1
"23/08/11","09:50",0.0,31.2,64.7,1002.4,129.9,1.8,4.2,125.6,0.14,23.8,26.3,"09:49:36",1
"23/08/11","10:00",0.0,31.2,66.0,1001.9,135.2,1.8,4.1,185.2,0.16,24.1,26.5,"09:51:20",1
"23/08/11","10:10",0.0,31.3,65.9,1001.9,143.4,1.8,4.1,128.5,0.17,24.2,26.4,"10:03:20",1
"23/08/11","10:20",0.0,31.4,65.4,1001.7,139.5,1.7,3.9,130.0,0.17,24.2,26.5,"10:18:40",1
"23/08/11","10:30",0.0,31.9,63.4,1002.4,120.6,1.6,3.3,128.7,0.25,24.1,26.4,"10:24:08",1
"23/08/11","10:40",0.0,32.4,62.8,1002.4,133.7,1.8,4.0,175.2,0.33,24.4,26.5,"10:31:44",1
"23/08/11","10:50",0.0,33.0,60.6,1002.6,123.6,1.5,3.7,129.4,0.28,24.4,26.7,"10:47:20",1
"23/08/11","11:00",0.0,32.7,60.6,1002.4,161.9,2.2,4.2,211.0,0.32,24.1,26.7,"10:56:24",1
"23/08/11","11:10",0.0,33.1,59.4,1002.2,142.3,1.5,3.2,177.1,0.23,24.2,26.8,"11:02:40",1
"23/08/11","11:20",0.0,33.3,58.3,1001.9,121.7,1.6,3.6,101.9,0.29,24.0,26.6,"11:12:08",1
"23/08/11","11:30",0.0,33.1,58.4,1001.9,131.0,1.6,3.9,135.3,0.23,23.9,26.9,"11:22:40",1
"23/08/11","11:40",0.0,33.8,56.6,1001.9,150.5,2.2,4.1,162.4,0.44,24.0,27.0,"11:39:12",1
"23/08/11","11:50",0.0,33.7,56.9,1001.7,121.7,1.7,3.6,122.6,0.27,24.0,26.9,"11:41:04",1
"23/08/11","12:00",0.0,35.3,52.4,1002.2,95.4,1.1,2.6,77.2,0.57,24.1,26.9,"11:59:12",1
"23/08/11","12:10",0.0,34.5,54.0,1002.2,121.1,1.1,2.6,145.3,0.25,23.9,27.1,"12:05:12",1
"23/08/11","12:20",0.0,34.6,53.4,1001.9,125.8,1.6,4.4,130.4,0.34,23.8,27.0,"12:17:52",1
"23/08/11","12:30",0.0,34.6,54.6,1001.9,117.7,1.1,3.5,169.1,0.31,24.2,27.3,"12:20:08",1
"23/08/11","12:40",0.0,33.6,54.5,1001.9,165.7,1.8,3.5,172.3,0.20,23.2,27.2,"12:36:48",1
"23/08/11","12:50",0.0,35.5,50.3,1001.9,159.4,1.5,2.6,138.3,0.53,23.6,27.2,"12:40:32",1
"23/08/11","13:00",0.0,34.4,53.1,1001.5,165.2,1.5,3.1,235.7,0.15,23.5,27.4,"12:53:04",1
"23/08/11","13:10",0.0,34.9,52.7,1001.5,116.7,1.2,3.6,117.1,0.30,23.8,27.2,"13:08:48",1
"23/08/11","13:20",0.0,35.5,49.1,1001.2,156.5,1.7,3.2,157.4,0.42,23.2,27.4,"13:12:40",1
"23/08/11","13:30",0.0,35.1,50.2,1001.5,74.3,1.0,2.6,19.2,0.17,23.2,27.7,"13:23:20",1
"23/08/11","13:40",0.0,34.5,52.9,1000.5,77.1,1.1,3.2,51.8,0.22,23.5,27.6,"13:30:16",1
"23/08/11","13:50",0.0,35.8,48.8,1000.8,55.5,0.8,2.8,359.4,0.30,23.4,27.8,"13:48:56",1
"23/08/11","14:00",0.0,34.5,50.8,1000.5,41.9,1.0,2.7,17.2,0.09,22.9,27.7,"13:58:08",1
"23/08/11","14:10",0.0,34.7,52.8,1000.5,36.1,0.6,2.2,30.3,0.22,23.7,27.6,"14:05:44",1
"23/08/11","14:20",0.0,35.2,51.1,1000.0,76.1,1.0,2.8,12.0,0.23,23.6,27.9,"14:11:20",1
"23/08/11","14:30",0.0,35.3,49.2,1000.0,86.0,0.8,2.1,127.7,0.17,23.1,27.7,"14:23:12",1
"23/08/11","14:40",0.0,35.8,50.3,1000.3,121.5,1.2,2.9,172.0,0.30,23.9,27.7,"14:38:08",1
"23/08/11","14:50",0.0,35.8,49.9,1000.3,96.3,1.1,2.9,178.0,0.27,23.8,27.7,"14:41:36",1
"23/08/11","15:00",0.0,35.6,49.0,1000.0,90.6,1.0,2.2,180.5,0.16,23.3,27.9,"14:55:44",1
"23/08/11","15:10",0.0,35.0,48.8,1000.0,104.1,1.1,3.3,87.9,0.12,22.7,27.8,"15:09:40",1
"23/08/11","15:20",0.0,35.7,48.5,999.8,35.9,1.0,2.5,23.3,0.23,23.2,27.7,"15:12:16",1
"23/08/11","15:30",0.0,35.8,47.3,999.3,99.5,0.8,2.4,95.4,0.17,22.9,27.9,"15:27:44",1
"23/08/11","15:40",0.0,35.3,50.1,999.8,102.6,1.0,1.9,129.2,0.16,23.4,27.9,"15:34:40",1
"23/08/11","15:50",0.0,36.6,47.8,999.8,113.1,1.0,2.6,155.5,0.28,23.8,27.8,"15:43:28",1
"23/08/11","16:00",0.0,36.0,46.5,999.8,101.7,1.0,3.1,116.3,0.18,22.8,27.9,"15:56:00",1
"23/08/11","16:10",0.0,36.3,46.2,1000.0,84.1,1.0,2.6,108.1,0.22,22.9,27.9,"16:01:12",1
"23/08/11","16:20",0.0,36.4,46.5,999.8,89.7,1.1,2.7,147.2,0.21,23.1,27.8,"16:12:40",1
"23/08/11","16:30",0.0,36.2,45.1,999.8,98.9,1.1,3.1,149.8,0.18,22.5,28.0,"16:29:04",1
"23/08/11","16:40",0.0,35.9,45.6,999.3,120.4,1.1,3.2,119.2,0.16,22.4,28.2,"16:30:08",1
"23/08/11","16:50",0.0,35.7,46.3,999.3,102.8,1.1,2.4,138.2,0.14,22.4,28.1,"16:47:44",1
"23/08/11","17:00",0.0,35.6,45.6,999.3,115.6,1.1,2.2,136.8,0.12,22.1,28.1,"16:52:40",1
"23/08/11","17:10",0.0,35.5,45.7,999.3,106.3,0.7,3.4,134.0,0.10,22.0,28.0,"17:04:08",1
"23/08/11","17:20",0.0,35.3,46.3,999.1,106.1,1.0,2.5,120.3,0.08,22.1,28.1,"17:12:40",1
"23/08/11","17:30",0.0,35.3,46.1,999.1,97.0,0.7,1.8,60.0,0.06,22.0,28.1,"17:28:00",1
"23/08/11","17:40",0.0,34.8,47.0,999.1,112.6,1.0,2.6,121.3,0.04,21.9,27.8,"17:37:28",1
"23/08/11","17:50",0.0,34.4,48.1,999.1,104.2,0.8,1.9,150.9,0.01,21.9,27.8,"17:40:08",1
"23/08/11","18:00",0.0,33.7,49.4,998.9,107.8,0.7,2.2,102.1,0.00,21.7,27.9,"17:50:40",1
"23/08/11","18:10",0.0,33.3,49.7,998.6,103.1,1.0,2.2,110.6,0.00,21.4,27.7,"18:05:36",1
"23/08/11","18:20",0.0,33.1,51.5,998.2,62.3,0.6,1.8,100.3,0.00,21.8,27.8,"18:13:20",1
"23/08/11","18:30",0.0,32.7,53.1,998.2,22.0,1.0,2.4,33.6,0.00,21.9,27.8,"18:27:28",1
"23/08/11","18:40",0.0,31.9,57.0,997.9,358.5,0.8,1.4,1.8,0.00,22.4,27.8,"18:32:48",1
"23/08/11","18:50",0.0,31.0,60.3,997.7,359.4,0.7,1.7,352.9,0.00,22.4,27.8,"18:48:40",1
"23/08/11","19:00",0.0,30.0,63.5,997.4,339.3,0.6,1.3,2.1,0.00,22.4,27.5,"18:52:32",1
"23/08/11","19:10",0.0,29.3,65.6,997.2,341.7,0.8,1.3,357.6,0.00,22.2,27.5,"19:03:04",1
"23/08/11","19:20",0.0,28.5,67.1,997.0,329.7,0.8,1.4,309.4,0.00,21.8,27.5,"19:14:00",1
"23/08/11","19:30",0.0,28.3,68.6,997.7,332.5,0.5,1.2,343.2,0.00,22.0,27.3,"19:22:16",1
"23/08/11","19:40",0.0,27.8,70.2,997.9,255.1,0.3,1.0,267.1,0.00,21.9,27.4,"19:37:20",1
"23/08/11","19:50",0.0,27.9,70.9,997.9,332.8,0.7,1.9,336.8,0.00,22.2,27.3,"19:48:00",1
"23/08/11","20:00",0.0,28.5,69.4,998.4,335.9,0.8,1.9,345.6,0.00,22.4,27.1,"19:58:00",1
"23/08/11","20:10",0.0,28.7,69.0,998.2,331.8,1.0,2.1,7.9,0.00,22.5,27.2,"20:00:32",1
"23/08/11","20:20",0.0,28.3,70.3,998.2,346.6,1.0,1.8,341.7,0.00,22.4,27.1,"20:18:48",1
"23/08/11","20:30",0.0,27.7,71.8,998.4,316.7,0.7,1.8,337.5,0.00,22.2,27.2,"20:20:56",1
"23/08/11","20:40",0.0,27.6,72.4,998.6,280.2,0.7,1.3,247.9,0.00,22.2,27.0,"20:32:40",1
"23/08/11","20:50",0.0,27.6,72.5,998.9,306.4,0.7,1.1,252.0,0.00,22.3,26.9,"20:44:08",1
"23/08/11","21:00",0.0,27.1,74.0,999.1,325.9,0.7,1.4,317.2,0.00,22.1,27.0,"20:59:36",1
"23/08/11","21:10",0.0,26.8,74.8,999.1,321.5,0.8,1.6,327.3,0.00,22.0,27.0,"21:00:32",1
"23/08/11","21:20",0.0,26.7,75.4,999.6,283.1,0.6,1.2,312.2,0.00,22.0,26.9,"21:18:40",1
"23/08/11","21:30",0.0,26.7,75.4,999.6,291.0,0.6,1.4,303.3,0.00,22.0,26.7,"21:20:16",1
"23/08/11","21:40",0.0,26.7,75.6,999.3,302.6,0.7,1.4,328.9,0.00,22.1,27.0,"21:35:36",1
"23/08/11","21:50",0.0,26.5,76.6,999.6,336.5,0.8,1.4,345.1,0.00,22.1,26.8,"21:40:40",1
"23/08/11","22:00",0.0,26.3,77.6,999.6,329.2,0.8,1.7,327.0,0.00,22.1,26.7,"21:54:00",1
"23/08/11","22:10",0.0,26.1,78.2,999.6,313.7,1.0,1.8,342.2,0.00,22.0,26.6,"22:08:56",1
"23/08/11","22:20",0.0,26.2,78.3,999.6,317.1,1.1,2.2,334.0,0.00,22.2,26.2,"22:10:40",1
"23/08/11","22:30",0.0,26.3,78.4,999.6,305.1,1.0,1.9,310.7,0.00,22.3,26.5,"22:25:44",1
"23/08/11","22:40",0.0,26.2,78.7,999.6,320.5,0.8,1.3,311.0,0.00,22.2,26.2,"22:30:40",1
"23/08/11","22:50",0.0,25.9,79.1,1000.0,311.5,0.8,1.3,307.3,0.00,22.0,26.3,"22:42:40",1
"23/08/11","23:00",0.0,25.9,79.5,999.8,283.2,0.7,1.3,305.2,0.00,22.1,26.3,"22:58:16",1
"23/08/11","23:10",0.0,25.9,79.8,999.8,304.9,0.8,1.7,342.1,0.00,22.2,26.3,"23:09:44",1
"23/08/11","23:20",0.0,25.8,80.0,999.3,320.8,1.0,1.8,335.1,0.00,22.1,26.1,"23:10:08",1
"23/08/11","23:30",0.0,25.7,80.6,999.8,329.7,0.8,1.6,332.8,0.00,22.2,26.3,"23:27:12",1
"23/08/11","23:40",0.0,25.5,81.3,999.6,300.8,0.7,1.2,303.4,0.00,22.1,26.2,"23:35:28",1
"23/08/11","23:50",0.0,25.4,81.7,999.8,323.2,1.0,2.2,344.2,0.00,22.1,26.2,"23:48:00",1
"23/08/11","24:00",0.0,25.4,82.1,999.6,320.8,0.8,1.8,331.7,0.00,22.2,26.2,"23:50:56",1
